Regional Weather Roundup
Issued by NWS Wakefield, VA

Home | Current Version | Previous Version | Text Only | Print | Product List | Glossary On
Versions: 1 2 3 4 5 6 7 8 9 10 11 12 13 14 15 16 17 18 19 20 21 22 23 24 25 26 27 28 29 30 31 32 33 34 35 36 37 38 39 40 41 42 43 44 45 46 47 48 49 50
000
ASUS41 KAKQ 061810
RWRAKQ

REGIONAL WEATHER ROUNDUP
NATIONAL WEATHER SERVICE WAKEFIELD VA
100 PM EST FRI MAR 06 2015

Note: "fair" indicates few or no clouds below 12,000 feet with no
significant weather and/or obstructions to visibility. * = Denotes
station may not report precipitation (e.g., rain,snow,etc.),
thunder or fog.

VAZ042-051-052>054-056-061900-
NORTHERN VIRGINIA

CITY           SKY/WX    TMP DP  RH WIND       PRES   REMARKS
WASH NATIONAL  FAIR      27   7  42 VRB3      30.56F
DULLES         FAIR      21   3  45 VRB3      30.55F
FORT BELVOIR   FAIR      25   6  44 VRB3      30.56F
QUANTICO       FAIR      23  11  60 E12       30.58F WCI  12
FREDERICKSBRG* FAIR      27   8  44 CALM      30.55F
STAFFORD*      FAIR      24   1  37 CALM      30.59F
WARRENTON      FAIR      26  11  52 NW3       30.54F
CULPEPER*      FAIR      25   1  36 CALM      30.54F
MANASSAS*      SUNNY     30   9  40 N5        30.56F
LEESBURG*      FAIR      23   7  50 NW5       30.56F
WINCHESTER     FAIR      28   0  29 CALM      30.51F
FRONT ROYAL*   FAIR      23   3  42 CALM      30.51F
LURAY*         FAIR      27  10  50 CALM      30.49F
$$

VAZ048-049-060>072-079>083-061900-
CENTRAL AND SOUTH CENTRAL VIRGINIA

CITY           SKY/WX    TMP DP  RH WIND       PRES   REMARKS
RICHMOND       FAIR      27  10  49 NW6       30.54F
CHESTERFIELD*  FAIR      27   3  36 E6        30.54F
PETERSBURG*    FAIR      28  11  48 CALM      30.54F
HANOVER        FAIR      25  10  53 CALM      30.55F
TAPPAHANNOCK*  FAIR      26   6  43 N6        30.55F
QUINTON*       FAIR      26  10  52 N8        30.54F
CHARLOTTSVILLE FAIR      26   8  46 CALM      30.50F
GORDONSVILLE*  FAIR      23   5  45 NE3       30.52F
ORANGE*        FAIR      27   5  39 N3        30.54F
LOUISA*          N/A     27   9  46 N5        30.51F
BUMPASS*       FAIR      24   5  45 N3        30.53F
FARMVILLE*     FAIR      33  13  43 NE6         N/A
CREWE*         FAIR      27   8  45 NE6       30.51F
FORT PICKETT*  FAIR      27  11  52 NE5       30.50F
CHASE CITY*    FAIR      30  14  51 CALM      30.49F
CLARKSVILLE*   FAIR      30  12  47 NW5       30.49F
SOUTH HILL*    FAIR      29  10  45 NE5       30.55F
LAWRENCEVILLE* FAIR      29  13  49 N5        30.50F
EMPORIA*       FAIR      28  12  50 W3G17     30.53F
$$

VAZ088>098-061900-
SOUTHEAST VIRGINIA

CITY           SKY/WX    TMP DP  RH WIND       PRES   REMARKS
NORFOLK        FAIR      26  14  60 N13G20    30.53F WCI  15
VIRGINIA BEACH FAIR      29  17  61 NE13G20   30.52F WCI  19
NORFOLK NAVAL  FAIR      30  15  53 N20G28    30.55F WCI  17
WEST POINT*    FAIR      30  15  53 N5        30.56F
SALUDA*        FAIR      25  12  58 NE6       30.54F
NEWPORT NEWS   FAIR      32  14  47 NE5       30.53F
LANGLEY AFB    FAIR      26  16  66 NE15      30.53F WCI  14
FORT EUSTIS    SUNNY     29  15  57 N8        30.51F
WILLIAMSBURG*    N/A    N/A N/A N/A MISG      30.52F
HR EXEC AP*      N/A    N/A N/A N/A MISG        N/A
FRANKLIN*      FAIR      29  15  55 N6        30.53F
WAKEFIELD      FAIR      29  14  53 VRB3      30.53F
$$

VAZ020-022-025-037-045-061900-
WEST CENTRAL AND SOUTHWEST VIRGINIA

CITY           SKY/WX    TMP DP  RH WIND       PRES   REMARKS
STAUNTON*      FAIR      22   7  52 NE3       30.49F
WAYNESBORO*    FAIR      18   6  60 N3        30.45F
HOT SPRINGS VA FAIR      19   8  60 CALM      30.24F
LYNCHBURG      FAIR      26  10  50 CALM      30.49F
DANVILLE       FAIR      33  13  43 NE10      30.49F WCI  25
SOUTH BOSTON*  FAIR      30  11  44 NE3       30.50F
MARTINSVILLE   FAIR      33  15  48 N6        30.48F
ROANOKE        FAIR      24   7  48 CALM      30.48F
BLACKSBURG     FAIR      24  10  54 CALM      30.42F
DUBLIN*        FAIR      25  13  61 CALM      30.40F
MARION*        FAIR      28  18  65 E5        30.37F
HILLSVILLE*    FAIR      27  17  64 CALM      30.33F
RICHLANDS*     FAIR      23  15  71 CALM      30.35F
WISE*          FAIR      28  10  47 CALM      30.36F
ABINGDON*      CLOUDY    30  24  75 SW3       30.39F
$$

MDZ021>025-VAZ099-100-061900-
SOUTHERN MARYLAND AND THE DELMARVA PENINSULA

CITY           SKY/WX    TMP DP  RH WIND       PRES   REMARKS
PATUXENT RIVER FAIR      21   9  58 N10       30.55F WCI  10
BAY BRIDGE APT   N/A     23   5  46 N6        30.56F
LEONARDTOWN    FAIR      23  10  58 N8        30.56F
DOVER          FAIR      21   8  57 N6        30.54F
GEORGETOWN     FAIR      23  11  60 N7        30.54F
EASTON         NOT AVBL
CAMBRIDGE      FAIR      23   9  54 N8        30.55F
SALISBURY      PTSUNNY   28  13  53 E8        30.52F
OCEAN CITY     CLOUDY    23  14  68 NE12      30.53F WCI  12
WALLOPS ISLAND FAIR      27  18  69 E10       30.53F WCI  17
ACCOMACK*      FAIR      27  14  59 NW6       30.52F
$$

NCZ012>017-030>032-061900-
NORTH CENTRAL AND EASTERN NORTH CAROLINA

CITY           SKY/WX    TMP DP  RH WIND       PRES   REMARKS
ROANOKE RAPIDS FAIR      32  12  43 N3        30.50F
RALEIGH        FAIR      32  10  40 N3        30.48F
ELIZABETH CITY FAIR      30  19  63 NE13      30.50F WCI  20
AHOSKIE*       FAIR      30  15  54 NW8G16    30.50F
EDENTON*       FAIR      33  19  57 N13G18    30.49F WCI  24
CURRITUCK*     FAIR      28  16  59 NE16G23   30.52F WCI  16
KILL DEVIL HLS CLOUDY    29  22  75 N13G23    30.45F WCI  19
MANTEO         CLOUDY    30  22  74 N21G28    30.46F WCI  17
CAPE HATTERAS  CLOUDY    32  25  75 N16G30    30.41F WCI  21
TARBORO*       FAIR      34  16  47 N9        30.50F
GOLDSBORO      FAIR      33  22  61 N8G18     30.45F
WASHINGTON     FAIR      33  21  62 N13       30.47F WCI  23
GREENVILLE     FAIR      34  18  51 N13       30.48F WCI  25
NEW BERN       FAIR      38  20  48 NE13      30.45F
WILMINGTON     CLOUDY    39  23  52 N10       30.43F
$$

VAZ048-061900-
ELSEWHERE

CITY           SKY/WX    TMP DP  RH WIND       PRES   REMARKS
HARRISBURG PA  FAIR      19   3  49 NW7       30.53F
BALTIMORE      FAIR      24   5  44 CALM      30.54F
ANNAPOLIS      FAIR      24   6  46 NW5       30.56F
ANDREWS AFB    FAIR      22   7  50 VRB1      30.53F
PHILADELPHIA   FAIR      23   9  55 VRB5      30.54F
HENDERSON NC   FAIR      31   8  38 CALM      30.48F
GREENSBORO     FAIR      32  19  58 NW6       30.45F
ROCKY MOUNT    FAIR      32  14  47 N7        30.49F
$$

VAZ100-061900-
MARINE

STATION/POSITION TIME  TEMP    WIND        PRES    WAVE   SWELL
                       AIR SEA DIR/SP/G            HT/PER HT/PER
                 (UTC) (F)     (DEG/KT/KT) (MB)    (FT/S) (FT/S)
BRANDYWINE LGT   1800   19 31  340/ 10/ 12 1034.3F
CAPE MAY NJ      1800   23 33  320/  7/ 11 1033.8F
LEWES DE         1800   20 30  350/ 10/ 12 1034.2F
15NM E FENWICK I 1800   23 36              1033.3F   5/ 6
OCEAN-CITY-INLET 1800   22 32   20/  7/ 12 1033.7F
WACHAPREAGUE VA  1800   26 35   50/  6/ 10 1033.5F
THOMAS POINT MD  1800           20/  9/ 10   N/A
COVE POINT MD    1800   17      20/ 10/ 12 1034.8F
SOLOMONS ISLAND  1800      33                N/A
BISHOPS HEAD MD  1800   21 33   20/  6/  9 1034.0F
CAMBRIDGE MD     1800   20 32  350/  5/  7 1034.6F
LEWISETTA VA     1800           40/  1/  7   N/A
RAPPAHANNOCK LGT 1800          350/ 14/ 16 1034.6F
STINGRAY PT      1800   22      20/ 14/ 17   N/A
YORK RVR RNG VA  1800   24      40/ 13/ 16 1035.4S
YORKTOWN VA      1800           30/ 10/ 11 1033.7F
DOMINION TERM VA 1800   25      60/  8/ 12 1034.0S
KIPTOPEKE VA     1800          340/ 17/ 19   N/A
CHES BAY BRIDGE  1800          350/ 13/ 17 1033.7S
CAPE HENRY VA    1800   23      10/ 10/ 12 1032.4F
CHESAPEAKE LGHT  1700   22      10/ 18/ 22 1034.0F
WILLOUBY STN VA  1800           30/ 16/ 18   N/A
S CRANEY ISL VA  1800           20/ 15/ 20 1034.0S
CAPE HENRY BUOY  1800      35                N/A     5/ 8
1ST LANDING BUOY 1800   24     360/ 14/ 16 1033.5S
OFFSHORE WE BUOY 1800      36                N/A     7/ 8   3/ 8
64NM E OF VA BCH 1800   36 51  360/ 23/ 27 1029.5F   7/ 8   5/ 8
DUCK PIER NC     1800   25 35  350/ 22/ 26 1030.7F
44100 DUCK FRF   1800      37                N/A     7/ 8   2/11
44056 DUCK FRF   1800      35                N/A     7/ 8   2/11
OREGON INLET NC  1800   29 38  350/ 18/ 25 1030.8F
HATTERAS NC      1800          360/ 24/ 30 1030.0F
CAPE LOOKOUT NC  1700           10/ 21/ 26 1030.2F
$$


USA.gov is the U.S. government's official web portal to all federal, state and local government web resources and services.